Погода в Жезказгане

Погода в Жезказгане : погода сейчас, прогноз погоды и архив. Всё, что Вы хотите узнать о погоде в Жезказгане!

Хотите узнать прогноз погоды в Жезказгане? Тогда Вам сюда: Погода в Жезказгане

Поиск расширенной информации на нашем сайте:

Другие новости

Новости СМИ2

Главная страница сайта

Новости сайта

03.07.2017

Напоминаем, что на нашем специализированном сайте Метеоцентр.Азия вы можете получить высокодетализированные автоматические прогнозы погоды по пунктам России, СНГ и мира в авиационном формате (включающие направление и скорость ветра, видимость, явления погоды, количество и форму облачности, нижнюю и верхнюю границу облачности).


Погода в Жезказгане - сегодня

Время (UTC), дата Ветер
(°,м/с) 
Видим.   Явления Облачность Т
(°С)
Тd
(°С)
f(%) Тe
(°С)
Pmin
(гПа)
dP
(гПа)
Po
(мм)
O2
(г/м3)
Тmin Tmax R s Состояние
почвы
03 17.06.18 200 (Ю) 20000 м    3/3 600 м 
[Sc]
+23.6 -2.3 18 +24  1002.6  -0.8  723  268           
06 17.06.18 360 (С) 20000 м    4/3 1000 м верхняя 
[Cu hum|Ci fib]
+28 +5.4 24 +28  1001.4  -0.5  722  263  +14         
09 17.06.18 270 (З) 20000 м    6/4 1000 м верхняя 
[Cu med, cong|Ci fib]
+33 +4.6 17 +33  998.4  -2.3  721  258           
12 17.06.18 320 (СЗ) 20000 м    8/8 600 м кучево-дожд. 
[Cb cap]
+31.3 +3.4 17 +31  998.6  721  260           
15 17.06.18 340 (С) 20000 м    9/9 600 м кучево-дожд. 
[Cb cap]
+26.8 +3.2 22 +27  999.4  0.2  721  264    +33.7       
18 17.06.18 360 (С) 20000 м    8/8 600 м кучево-дожд. 
[Cb cap]
+23.5 +5.7 32 +24  1000.6  0.7  721  267    +33.7       
21 17.06.18 300 (СЗ) 20000 м    5/5 600 м кучево-дожд. 
[Cb cap]
+18.4 +8.3 52 +19  999  -2.1  720  270           
00 18.06.18 360 (С) 20000 м    6/6 600 м 
[Sc]
+14.7 +7.1 60 +15  1000  0.4  720  274           
03 18.06.18 320 (СЗ) 20000 м    6/6 600 м 
[Sc]
+17.9 +7.4 50 +18  999.4  -0.1  720  271           
06 18.06.18 010 (С) 20000 м    4/4 600 м 
[Sc]
+24.4 +6 31 +24  997.4  -1.1  719  265  +14.6         
09 18.06.18 340 (С) 20000 м    5/5 1000 м 
[Cu hum]
+27 +1.1 19 +27  996  -1.1  718  263           
12 18.06.18 320 (СЗ) 12-17{18}  20000 м    8/8 600 м кучево-дожд. 
[Cb cap]
+21.1 +6.1 38 +21  998.8  720  268           
15 18.06.18 320 (СЗ) 8{15}  20000 м    ясно 
+17.6 +4.6 42 +17  1002.7  3.3  722  273    +27.5       
18 18.06.18 320 (СЗ) 20000 м    ясно 
+11.6 +3.1 56 +10  1005.3  1.7  724  279    +27.5       
21 18.06.18 350 (С) 20000 м    5/0 верхняя 
[Ci fib]
+12.4 +4.2 57 +12  1005  -0.2  723  278           
00 19.06.18 310 (СЗ) 20000 м    ясно 
+10.1 +4.4 68 +10  1006.5  1.1  724  281           
06 19.06.18 310 (СЗ) 20000 м    3/3 1000 м 
[Cu hum]
+23 +0.8 23 +23  1005.9  -0.1  725  269  +9.5         
09 19.06.18 290 (З) 20000 м    4/4 1000 м 
[Cu hum]
+26.1 -0.7 17 +26  1004.7  -0.8  725  266           
12 19.06.18 300 (СЗ) 20000 м    8/8 1000 м 
[Cu med, cong]
+26.7 +1.5 19 +27  1004.2  -0.4  724  266           
15 19.06.18 330 (СЗ) 20000 м    4/4 600 м 
[Sc diur, vesp]
+26.2 +1.9 21 +26  1004.5  0.3  724  266    +27.7       
18 19.06.18 340 (С) 20000 м    ясно 
+19.5 +2.5 32 +20  1006.5  1.1  725  272    +27.7       
21 19.06.18 300 (СЗ) 20000 м    ясно 
+16.1 +1.7 38 +17  1007.3  0.3  725  276           
00 20.06.18 280 (З) 20000 м    ясно 
+11.7 +0.9 47 +13  1008.9  0.9  726  280           
03 20.06.18 320 (СЗ) 20000 м    ясно 
+24.2 +5.3 29 +24  1008  0.9  727  268           
06 20.06.18 280 (З) 20000 м    8/8 1000 м 
[Cu hum]
+28.2 +3.5 21 +28  1007.5  727  265  +11.2         
Время (UTC), дата Ветер
(°,м/с) 
Видим.   Явления Облачность Т
(°С)
Тd
(°С)
f(%) Тe
(°С)
Pmin
(гПа)
dP
(гПа)
Po
(мм)
O2
(г/м3)
Тmin Tmax R s Состояние
почвы

Для получения пояснительной информации подведите курсор к названию столбца.

ПОГОДА в Жезказгане - архив

Всё, что Вы хотите узнать о погоде в Жезказгане - удобно и подробно!

Выберите нужную дату (начиная с 1 января 2015* года) и нажмите кнопку "Найти".
Будут отображены архивные сводки погоды по пункту Жезказган, начиная с указанной даты.


Отображать данные в формате CSV (для использования в таблицах Excel)


Внимание! Наш архив погоды предназначен исключительно для личного некоммерческого использования в познавательных целях. Если Вам необходимы официальные справки о состоянии погоды (для производственных, юридических, коммерческих и т.п. целей), обращайтесь в органы Росгидромета.

*Примечание: данная дата относится к архиву по метеостанциям СССР (Россия, СНГ, Балтия).
Архив по метеостанциям Зарубежной Европы и Азии (кроме Китая) хранится 10 дней, по другим регионам земного шара (Китай, Африка, Америка, Австралия, Океания) - 1 день.

Жезказган - район местоположения метеостанции


Название, широта, долгота, высота метеостанции:
Жезказган 47.8°ш. 67.7°д. 346 м над ур. моря [Казахстан]

Дополнительная информация

В oтличие oт бoльшинства пoгoдных сайтoв мы публикуем пoдрoбную метеoинфoрмацию в детальнoм прoфессиoнальнoм фoрмате.

Характеристики температуры и влажнoсти вoздуха измеряются на высoте 2 м в тени вдали oт зданий и деревьев.
Скoрoсть ветра измеряется на высoте 10 м (на урoвне рoста челoвека скoрoсть ветра ниже в 1.5-2 раза). Если метеoстанция нахoдится в гoрoде или в лесу, тo скoрoсть ветра занижена на 2-4 м/с пo сравнению с oткрытым местoм. Скoрoсть ветра над акватoриями крупных рек и oзёр, а также на вершинах хoлмoв на 2-5 м/с выше, чем в oбычных услoвиях.
Атмoсфернoе давление в разных тoчках местнoсти мoжет значительнo oтличаться oт давления на метеoстанции, в зависимoсти oт услoвий рельефа (при пoдъёме на 10 м давление пoнижается примернo на 1 мм рт.ст.).